AISAT (40054 NORAD) Tracking and Keplerian Element Data

This shows tracking and keplerian element data for the satellite.

Feedback or suggestion? Click here.




ElementValue
Catalog40054
NameAISAT
Epoch Orbit23989
Epoch Day346.1902947
Epoch Year2018
RAAN99.7685
Inclination98.2157
Eccentricity0.0014075
Argument of Perigee104.7714
Mean Anonmoly255.5056
Mean Motion14.77627188
Decay Rate4.03E-06
L11 40054U 14034B 18346.19029470 .00000403 00000-0 63850-4 0 9992
L22 40054 98.2157 99.7685 0014075 104.7714 255.5056 14.77627188239892



Live tracking and technical data element details for AISAT (NORAD 40054). AISAT can be tracked NOW for your location showing map with azimuth and elevation plus other details from your city location.







IsCatalogInMostPopularTable: catalog: 40054, numindb: 688
Update: records affected: 1



GetName: 40054 AISAT

Hit Count: updated at: Mon, 18 May 2026 10:19:25 GMT